Weather in Gorodets

Russia / Bryansk Oblast     53°07′37″N   34°03′13″E
temp.,
°C
wind,
m/s
gust,
m/s
humid.,
%
clouds,
%
prec.,
mm/h
press.,
hPa
HPBL,
m
14 april, wed
wed1400:00+11se3981100 0.1 1018279
03:00+10s378628 0.1 1018260
06:00+8s359784 0.0 1019103
09:00+11s348057 0.0 1019444
12:00+15s3461100 0.1 10181265
15:00+15sse2357100 0.3 10161217
18:00+15se2465100 0.3 1016508
21:00+12n1176100 0.4 101611
15 april, thu
thu1500:00+11ne2280100 0.0 101534
03:00+10nnw1186100 0.1 101413
06:00+9ese2290100 0.0 101424
09:00+12ese41069100 0.0 1014544
12:00+15e465537 0.1 10131431
15:00+16e7857100 1.9 10121253
18:00+12e71278100 2.0 1013743
21:00+11ne368559 3.9 1013163
16 april, fri
fri1600:00+10ene388769 0.3 1013212
03:00+8e379091 0.3 1013145
06:00+7ene359257 0.0 1015104
09:00+11ese487799 0.1 1015551
12:00+11e4980100 3.0 1016478
15:00+13ese6972100 4.4 10161037
18:00+13e4769100 1.4 1016327
21:00+9sse117812 1.6 101811
17 april, sat
sat1700:00+8sse238498 0.0 101948
03:00+8e228061 0.0 102019
06:00+7nne338899 0.0 102163
09:00+10ene5788100 0.0 1021556
12:00+11ne5783100 0.0 1021742
15:00+12ne61077100 0.1 10211052
18:00+12ne71274100 0.1 1020719
21:00+10ene613755 0.1 1022526
18 april, sun
sun1800:00+9ene6137633 0.0 1022507
03:00+7ene5118098 0.0 1023374
06:00+7ene5977100 0.0 1024378
09:00+7ene477898 0.1 1025395
12:00+10e467147 0.0 1026745
15:00+11ene5772100 0.1 1026895
18:00+11e367220 0.0 1026264
21:00+8ene35776 0.0 102775